This demonstration page uses our WeatherBlox Daily Observations layout. Learn more.

40.92945, -100.16068

Hourly Observations for March 23, 2017

Temp ( °F °C ) Dew Point ( °F °C ) Humidity (%) Winds ( mph kmh ) Pressure ( in mb ) Visibility ( mi km ) Precip ( " mm )
12:15 am 00:15 Clear 46 7.5 33 0.4 61 61 SSE 14 22 30 1016 10 16.0934 0 0
12:35 am 00:35 Clear 46 7.5 33 0.8 63 63 SSE 15 24 30 1016 10 16.0934 0 0
12:55 am 00:55 Clear 45 7.3 33 0.7 63 63 SSE 13 20 30 1016 10 16.0934 0 0
1:15 am 01:15 Clear 45 7 33 0.7 65 65 SSE 10 17 30 1016 10 16.0934 0 0
1:35 am 01:35 Clear 45 7 34 1 66 66 SSE 9 15 30 1016 10 16.0934 0 0
1:55 am 01:55 Clear 45 7 34 1.3 67 67 SSE 12 19 29.97 1015 10 16.0934 0 0
2:15 am 02:15 Clear 45 7 34 1.2 67 67 SE 13 20 29.97 1015 10 16.0934 0 0
2:35 am 02:35 Clear 45 7 33 0.3 63 63 SE 9 15 29.97 1015 10 16.0934 0 0
2:55 am 02:55 Clear 44 6.4 32 0 64 64 SE 12 19 29.97 1015 10 16.0934 0 0
3:15 am 03:15 Clear 43 6.1 31 -0.3 64 64 SE 10 17 29.94 1014 10 16.0934 0 0
3:35 am 03:35 Partly Cloudy 43 6.1 31 -0.5 63 63 SE 8 13 29.94 1014 10 16.0934 0 0
3:55 am 03:55 Partly Cloudy 43 6.2 31 -0.5 63 63 SE 9 15 29.91 1013 10 16.0934 0 0
4:15 am 04:15 Clear 43 6 31 -0.3 64 64 SE 10 17 29.91 1013 10 16.0934 0 0
4:35 am 04:35 Mostly Cloudy 43 6.3 32 0 64 64 SE 8 13 29.88 1012 10 16.0934 0 0
4:55 am 04:55 Cloudy 45 7.1 33 0.6 64 64 SE 14 22 29.85 1011 10 16.0934 0 0
5:15 am 05:15 Cloudy 46 7.7 35 1.5 65 65 SSE 14 22 29.85 1011 10 16.0934 0 0
5:35 am 05:35 Cloudy 47 8.2 37 2.7 69 69 SSE 15 24 29.83 1010 10 16.0934 0 0
5:55 am 05:55 Cloudy 47 8.5 38 3.4 71 71 SSE 18 30 29.83 1010 10 16.0934 0 0
6:15 am 06:15 Cloudy 48 8.7 39 4 73 73 SSE 21 33 29.83 1010 10 16.0934 0 0
6:35 am 06:35 Cloudy 48 8.7 40 4.4 75 75 SSE 16 26 29.8 1009 10 16.0934 0 0
6:55 am 06:55 Cloudy 48 8.7 41 5.1 78 78 SSE 18 30 29.8 1009 10 16.0934 0 0
7:15 am 07:15 Cloudy 47 8.5 42 5.6 82 82 S 21 33 29.8 1009 7 11.26538 0 0
7:35 am 07:35 Cloudy 47 8.4 43 5.9 84 84 SSE 18 30 29.8 1009 7 11.26538 0 0
7:55 am 07:55 Cloudy with Mist and Fog 46 8 43 6.3 89 89 SSE 14 22 29.77 1008 3 4.82802 0 0
8:15 am 08:15 Cloudy with Mist and Fog 46 8 44 6.6 91 91 SSE 16 26 29.77 1008 1.25 2.011675 0 0
8:35 am 08:35 Cloudy with Mist and Fog 46 8 45 7 93 93 SSE 15 24 29.77 1008 1.25 2.011675 0 0
8:55 am 08:55 Cloudy with Mist and Fog 47 8.3 45 7.3 93 93 SSE 17 28 29.77 1008 1.25 2.011675 0 0
9:15 am 09:15 Cloudy with Mist and Fog 48 8.7 46 7.8 94 94 SSE 16 26 29.77 1008 1.25 2.011675 0 0
9:35 am 09:35 Cloudy with Mist and Fog 48 9.1 47 8.3 95 95 SSE 15 24 29.77 1008 1 1.60934 0 0
9:55 am 09:55 Cloudy with Mist and Fog 49 9.6 48 8.8 95 95 SSE 17 28 29.74 1007 1.25 2.011675 0 0
10:15 am 10:15 Cloudy with Mist and Fog 50 10 48 9.1 94 94 SSE 16 26 29.74 1007 1.25 2.011675 0 0
10:35 am 10:35 Cloudy with Mist and Fog 51 10.3 49 9.5 95 95 SSE 20 31 29.74 1007 1 1.60934 0 0
10:55 am 10:55 Cloudy with Mist and Fog 51 10.5 49 9.7 95 95 SSE 15 24 29.71 1006 0.75 1.207005 0 0
11:15 am 11:15 Cloudy with Mist and Fog 51 10.6 50 10 96 96 SSE 14 22 29.68 1005 0.75 1.207005 0 0
11:35 am 11:35 Cloudy with Mist and Fog 51 10.8 50 10.1 95 95 SE 10 17 29.71 1006 0.75 1.207005 0 0
11:55 am 11:55 Cloudy with Mist and Fog 52 11.1 51 10.5 96 96 SSE 15 24 29.68 1005 0.75 1.207005 0 0
12:15 pm 12:15 Cloudy with Fog 52 11.3 51 10.7 96 96 SSE 12 19 29.68 1005 0.5 0.80467 0 0
12:35 pm 12:35 Cloudy with Light Rain 53 11.8 52 11.1 96 96 SSE 10 17 29.68 1005 0.5 0.80467 0 0
12:55 pm 12:55 Cloudy with Mist and Fog 54 12.3 53 11.7 96 96 SSE 10 17 29.68 1005 0.75 1.207005 0 0
1:15 pm 13:15 Cloudy with Mist and Fog 55 12.6 54 12 96 96 SSE 10 17 29.68 1005 1 1.60934 0 0
1:35 pm 13:35 Cloudy with Mist and Fog 56 13.5 55 13 97 97 SE 10 17 29.62 1003 1.75 2.816345 0 0
1:55 pm 13:55 Cloudy with Mist and Fog 58 14.3 56 13.6 96 96 SE 12 19 29.62 1003 3 4.82802 0 0
2:15 pm 14:15 Cloudy with Mist and Fog 60 15.7 58 14.6 93 93 SSE 9 15 29.59 1002 4 6.43736 0 0
2:35 pm 14:35 Mostly Cloudy 66 18.9 59 15 78 78 SSE 9 15 29.56 1001 7 11.26538 0 0
2:55 pm 14:55 Partly Cloudy 69 20.3 58 14.7 70 70 SE 10 17 29.53 1000 10 16.0934 0 0
3:15 pm 15:15 Partly Cloudy 73 22.5 58 14.5 61 61 SE 12 19 29.5 999 10 16.0934 0 0
3:35 pm 15:35 Mostly Cloudy 75 24 56 13.4 52 52 S 14 22 29.44 997 10 16.0934 0 0
3:55 pm 15:55 Cloudy 78 25.5 54 12.4 44 44 S 16 26 29.44 997 10 16.0934 0 0
4:15 pm 16:15 Mostly Cloudy 81 27.1 54 12 39 39 S 16 26 29.41 996 10 16.0934 0 0
4:35 pm 16:35 Partly Cloudy 81 27 53 11.9 39 39 S 20 31 29.38 995 10 16.0934 0 0
4:55 pm 16:55 Sunny 81 27.1 53 11.9 39 39 S 23 37 29.38 995 10 16.0934 0 0
5:15 pm 17:15 Sunny 81 27.1 54 12.1 39 39 S 24 39 29.38 995 10 16.0934 0 0
5:35 pm 17:35 Sunny 80 26.7 53 11.8 40 40 SSE 26 43 29.38 995 10 16.0934 0 0
5:55 pm 17:55 Sunny 80 26.5 53 11.9 40 40 SSE 23 37 29.35 994 10 16.0934 0 0
6:15 pm 18:15 Sunny 78 25.5 52 11.3 41 41 SSE 22 35 29.38 995 10 16.0934 0 0
6:35 pm 18:35 Sunny 77 25.1 52 11.1 42 42 SSE 24 39 29.35 994 10 16.0934 0 0
6:55 pm 18:55 Sunny 78 25.3 51 10.5 39 39 SSE 24 39 29.32 993 10 16.0934 0 0
7:15 pm 19:15 Sunny 78 25.7 49 9.6 36 36 S 23 37 29.32 993 10 16.0934 0 0
7:35 pm 19:35 Sunny 78 25.3 49 9.7 37 37 S 20 31 29.32 993 10 16.0934 0 0
7:55 pm 19:55 Clear 76 24.6 50 9.8 39 39 S 21 33 29.35 994 7 11.26538 0 0
8:15 pm 20:15 Clear 76 24.4 49 9.2 38 38 S 20 31 29.35 994 7 11.26538 0 0
8:35 pm 20:35 Mostly Cloudy 75 23.9 49 9.2 39 39 SSE 20 31 29.35 994 7 11.26538 0 0
8:55 pm 20:55 Mostly Cloudy 75 23.7 49 9.3 40 40 S 16 26 29.38 995 7 11.26538 0 0
9:15 pm 21:15 Partly Cloudy 75 23.9 49 9.5 40 40 S 18 30 29.38 995 7 11.26538 0 0
9:35 pm 21:35 Mostly Cloudy with Haze 75 24 42 5.7 31 31 S 35 56 29.32 993 2.5 4.02335 0 0
9:55 pm 21:55 Mostly Cloudy with Haze 76 24.6 35 1.8 23 23 SSE 30 48 29.35 994 2.5 4.02335 0 0
10:15 pm 22:15 Hazy 73 22.6 40 4.5 31 31 S 37 59 29.44 997 4 6.43736 0 0
10:35 pm 22:35 Cloudy with Haze 67 19.2 44 6.8 45 45 S 29 46 29.53 1000 5 8.0467 0 0
10:55 pm 22:55 Cloudy with Nearby Thunderstorms 66 19 44 6.8 45 45 SE 13 20 29.56 1001 10 16.0934 0 0
11:15 pm 23:15 Cloudy 65 18.5 45 7 47 47 NNE 14 22 29.56 1001 10 16.0934 0 0
11:35 pm 23:35 Cloudy 60 15.5 49 9.6 68 68 NNE 28 44 29.62 1003 7 11.26538 0 0
11:55 pm 23:55 Cloudy with Light Rain 61 16.3 51 10.3 68 68 N 18 30 29.65 1004 10 16.0934 0 0

Powered by AerisWeather